Flag for Chile Weather past 2 weeks in Valdivia, Chile

Now
55 °F

Broken clouds.


Feels Like: 53 °F
Forecast: N/A
Wind: 8 mph from Northwest

Location: Puerto Montt Airport

Current Time: Jul 29, 2014 at 5:08:45 PM

Latest Report: Jul 29, 2014 at 4:00 PM


Visibility: N/A

Pressure: 30.04 "Hg

Humidity: 67%

Dew point: 45 °F

Location of ValdiviaLocation

Historic Weather in Valdivia — Graph

°F

Valdivia temperature yesterday

Maximum temperature yesterday: 54 °F (at 1:00 PM)
Minimum temperature yesterday: 39 °F (at 9:00 AM)
Average temperature yesterday: 48 °F

Past Weeks' High & Low Weather Summary

 TemperatureHumidityPressure
High55 °F (Jul 19, 2:00 PM)100% (Jul 14, 11:00 PM)30.51 "Hg (Jul 14, 11:00 PM)
Low32 °F (Jul 22, 4:00 AM)66% (Jul 25, 2:00 PM)29.59 "Hg (Jul 27, 10:00 PM)
Average46 °F91%30.07 "Hg
* Reported Jul 14 4:00 PM — Jul 29 4:00 PM, Valdivia, Weather by CustomWeather, © 2014

Note: Actual official high and low records may vary slightly from our data, if they occured in-between our weather recording intervals... More about our weather records

Advertising

Valdivia weather history for previous 24 hours

 ConditionsComfort  
Time TempWeatherWind HumidityBarometerVisibility
4:00 PM
Jul 29
55 °FBroken clouds.8 mph67%30.04 "HgN/A
3:00 PM55 °FBroken clouds.8 mph72%30.01 "HgN/A
2:00 PM54 °FBroken clouds.7 mph77%30.01 "HgN/A
1:00 PM54 °FSprinkles. Broken clouds.7 mph82%30.01 "HgN/A
12:00 PM52 °FSprinkles. Partly sunny.3 mph88%29.98 "HgN/A
11:00 AM50 °FPartly sunny.8 mph94%29.95 "HgN/A
10:00 AM50 °FPartly sunny.6 mph94%29.92 "HgN/A
9:00 AM48 °FMostly cloudy.3 mph94%29.89 "HgN/A
8:00 AM48 °FSprinkles. Mostly cloudy.7 mph100%29.83 "Hg3 mi
7:00 AM48 °FScattered showers. Passing clouds.9 mph100%29.80 "Hg4 mi
6:00 AM50 °FSprinkles. Overcast.10 mph94%29.77 "Hg4 mi
4:00 AM50 °FPassing clouds.14 mph88%29.71 "HgN/A
3:00 AM50 °FPassing clouds.12 mph88%29.71 "HgN/A
2:00 AM50 °FPassing clouds.8 mph88%29.74 "HgN/A
1:00 AM50 °FPassing clouds.7 mph88%29.74 "HgN/A
12:00 AM48 °FPassing clouds.7 mph94%29.77 "HgN/A
11:00 PM
Jul 28
48 °FPassing clouds.8 mph87%29.80 "HgN/A
10:00 PM48 °FPassing clouds.7 mph94%29.83 "HgN/A
9:00 PM48 °FClear.6 mph94%29.83 "Hg10 mi
8:00 PM48 °FPassing clouds.6 mph87%29.86 "HgN/A
7:00 PM46 °FPassing clouds.6 mph93%29.86 "HgN/A
6:00 PM50 °FPassing clouds.5 mph82%29.86 "HgN/A
5:00 PM52 °FPassing clouds.7 mph77%29.83 "HgN/A
Weather by CustomWeather, © 2014

See weather overviewHow to use our weather pages